Regional Weather Roundup
Issued by NWS

Current Version | Previous Version | Text Only | Print | Product List | Glossary On
Versions: 1 2 3 4 5 6 7 8 9 10 11 12 13 14 15 16 17 18 19 20 21 22 23 24 25 26 27 28 29 30 31 32 33 34 35 36 37 38 39 40 41 42 43 44 45 46 47 48 49 50
000
ASUS44 KJAN 060910
RWRMS

MISSISSIPPI HOURLY WEATHER ROUNDUP
NATIONAL WEATHER SERVICE JACKSON MS
300 AM CST FRI MAR 06 2015

NOTE: "FAIR: INDICATES FEW OR NO CLOUDS BELOW 12,000 FEET WITH NO
SIGNIFICANT WEATHER AND/OR OBSTRUCTIONS TO VISIBILITY.

MSZ001>002-007>008-010>013-018>021-025>028-034>036-061000-
NORTHWEST MISSISSIPPI

CITY           SKY/WX    TMP DP  RH WIND       PRES   REMARKS
CLARKSDALE       N/A     21  18  86 CALM      30.58F
CLEVELAND      FAIR      25  18  74 N8        30.57F WCI  16
GREENWOOD      CLEAR     22  14  71 N9        30.56S WCI  12
GREENVILLE     CLEAR     25  17  72 MISG      30.57S
OLIVE BRANCH   CLEAR     16  14  93 CALM      30.57F
OXFORD         FAIR      16  10  79 CALM      30.56F
TUNICA         SUNNY     23  19  86 N3        30.59F
$$

MSZ003>006-009-014>017-022>024-029>033-037>039-061000-
NORTHEAST MISSISSIPPI

CITY           SKY/WX    TMP DP  RH WIND       PRES   REMARKS
COLUMBUS AFB   CLEAR     22  14  70 N10       30.52F WCI  11
CORINTH        FAIR      19  10  68 NE7       30.54F WCI  10
GOLDN TRIANGLE CLEAR     21  16  79 N9        30.50F WCI  11
STARKVILLE     FAIR      23  18  80 CALM      30.52F
TUPELO         CLEAR     20  11  68 NE9       30.54F WCI   9
$$

MSZ040-058-061000-
CENTRAL MISSISSIPPI

CITY           SKY/WX    TMP DP  RH WIND       PRES   REMARKS
JACKSON INTL   CLEAR     25  15  66 N12       30.50F WCI  14
JACKSON HAWKNS CLEAR     24  13  62 N6        30.51S WCI  17
MERIDIAN KEY   PTCLDY    24  17  74 N14       30.48S WCI  12
MERIDIAN NAS   PTCLDY    23  18  81 N8        30.48F WCI  14
VICKSBURG      CLEAR     26  16  65 N10       30.56R WCI  16
$$

MSZ059>079-061000-
SOUTH MISSISSIPPI

CITY           SKY/WX    TMP DP  RH WIND       PRES   REMARKS
BROOKHAVEN       N/A     25  21  86 CALM      30.49F
HATTIESBURG    PTCLDY    29  18  63 N8        30.46F WCI  21
MCCOMB         PTCLDY    26  16  65 N12       30.47F WCI  16
NATCHEZ        CLEAR     27  12  54 N7        30.52S WCI  19
PINE BELT      PTCLDY    27  18  69 N9        30.45F WCI  17
$$

MSZ080>082-061000-
COASTAL MISSISSIPPI

CITY           SKY/WX    TMP DP  RH WIND       PRES   REMARKS
BILOXI         PTCLDY    31  20  64 N14G23    30.39F WCI  20
PASCAGOULA     PTCLDY    30  20  66 N14G26    30.39F WCI  19
GULFPORT       PTCLDY    30  18  60 N15       30.40F WCI  19
$$


USA.gov is the U.S. government's official web portal to all federal, state and local government web resources and services.